Location: Hauteville-Bocage
(49.4311°N, 1.4726°W)
Time: 01:57:35
(UTC+00:00)

Daily predictions for brighter satellites

Satellite Brightness Start Highest point End
(mag) Time Altitude Azimuth Time Altitude Azimuth Time Altitude Azimuth
Cosmos 1697 Rocket 3.9 03:32:35 38° ENE 03:32:35 38° ENE 03:37:24 10° ESE
COSMOS 2406 4.3 03:33:36 41° E 03:33:36 41° E 03:38:28 10° NE
ATLAS 2AS CENTAUR R/B 4.2 03:32:40 28° N 03:34:33 31° NNE 03:41:08 10° ENE
Cosmos 2082 Rocket 4.4 03:50:08 10° SSE 03:54:25 22° E 03:58:41 10° NE
CZ-2C R/B 4.0 03:51:41 10° NNE 03:56:09 32° E 04:00:27 10° SSE
Lacrosse 5 rocket 4.0 04:01:34 14° NE 04:01:34 14° NE 04:02:08 10° NE
Lacrosse 5 4.3 03:58:02 13° SSE 04:00:21 18° ESE 04:03:41 10° E
ADEOS 4.2 03:57:26 10° NNE 04:01:21 50° NE 04:01:21 50° NE
Cosmos 1777 Rocket 4.4 04:09:58 59° ESE 04:10:14 60° ESE 04:15:23 10° NNE
USA 234 3.8 04:06:49 10° ENE 04:12:59 46° N 04:14:11 42° NNW
CZ-4C R/B 2.7 04:19:52 50° N 04:19:52 50° N 04:25:21 10° NE
Cosmos 1833 Rocket 3.6 04:15:59 19° S 04:19:43 47° ESE 04:25:05 10° NE
COSMOS 2441 4.5 04:16:41 10° NNE 04:21:22 73° E 04:21:22 73° E
COSMOS 2455 4.5 04:18:33 17° NNW 04:21:59 28° NE 04:27:08 10° E
SL-16 R/B 4.2 04:17:56 10° N 04:22:14 23° NE 04:26:40 10° E
Cosmos 1934 Rocket 4.1 04:17:29 10° S 04:23:44 75° E 04:30:07 10° NNE
SL-4 R/B 2.6 04:28:59 68° NE 04:28:59 68° NE 04:33:24 10° ENE
H-2A R/B 2.7 04:26:33 10° NNE 04:30:51 75° ENE 04:30:51 75° ENE
MSX 3.7 04:26:23 10° NNE 04:32:10 86° WNW 04:34:50 34° SSW
Cosmos 1980 Rocket 2.7 04:31:29 25° NNW 04:34:49 60° ENE 04:40:27 10° SE
Cosmos 2322 Rocket 4.2 04:30:34 10° N 04:35:04 24° NE 04:39:34 10° E
COBE Rocket 4.4 04:32:18 10° SSE 04:37:24 62° ENE 04:42:27 10° N
Cosmos 2239 Rocket 4.3 04:35:56 48° SW 04:37:32 67° WNW 04:43:41 10° N
Cosmos 923 Rocket 4.1 04:35:54 35° NNW 04:38:08 75° ENE 04:43:21 10° SSE
Meteor 1-27 4.2 04:38:11 10° NNW 04:44:03 90° NW 04:49:55 10° S
Cosmos 2123 Rocket 3.8 04:39:43 10° NNW 04:45:52 68° W 04:52:00 10° S
Meteor 1-31 Rocket 3.0 04:42:09 10° NNE 04:45:57 66° ESE 04:47:20 37° S
Cosmos 2369 3.6 04:46:04 51° WNW 04:47:18 66° WSW 04:52:58 10° SSE
Cosmos 1869 4.3 04:44:32 10° N 04:48:15 45° ENE 04:52:01 10° SSE
STARLINK-60 4.2 04:50:17 39° SE 04:50:17 39° SE 04:53:22 10° ENE
IDEFIX/ARIANE 42P 3.4 04:48:20 10° N 04:51:47 33° NNW 04:51:47 33° NNW
Cosmos 2084 Rocket 4.2 04:51:20 27° S 04:53:27 53° SE 04:57:49 10° NE
Cosmos 1484 Rocket 4.1 04:50:02 10° NNE 04:53:49 41° E 04:57:37 10° S
Cosmos 2360 4.1 04:53:12 27° NNW 04:56:27 84° WSW 05:02:12 10° SSE
GENESIS II 4.1 04:56:25 78° WNW 04:56:39 84° SW 05:00:42 10° SE
Cosmos 1821 Rocket 4.2 04:59:32 41° W 05:00:11 42° WNW 05:06:01 10° N
SJ-6F 4.4 04:57:43 10° N 05:01:30 59° NW 05:01:30 59° NW
Cosmos 1605 Rocket 3.9 04:56:59 10° S 05:03:14 87° W 05:09:26 10° N
CZ-4B R/B 4.0 04:59:11 10° NNE 05:03:39 82° WNW 05:08:10 10° SSW
Meteor PRIRODA 3.8 05:01:21 10° NNE 05:05:03 70° ESE 05:08:42 10° S
Cosmos 2278 3.7 05:05:37 29° NW 05:08:32 61° WSW 05:14:08 10° S
Cosmos 1076 Rocket 3.7 05:04:11 10° S 05:08:32 72° E 05:12:53 10° NNE
ALOS 3.6 05:08:58 10° NNE 05:13:26 42° E 05:17:51 10° S
Meteor 2-20 4.4 05:08:29 10° N 05:14:42 89° E 05:20:52 10° S
Cosmos 1697 Rocket 3.0 05:14:23 33° WNW 05:16:13 43° WSW 05:21:28 10° S
Meteor 1-11 4.3 05:11:14 10° SSW 05:16:50 55° WNW 05:22:34 10° N
COSMOS 2406 3.7 05:15:43 33° W 05:17:25 41° NW 05:22:52 10° NNE
Cosmos 2221 2.8 05:16:47 39° WNW 05:17:37 44° W 05:21:46 10° SSW
Cosmos 1892 4.4 05:14:58 10° SSE 05:18:25 34° E 05:21:52 10° NNE
PSLV R/B 3.7 05:15:31 10° NNE 05:19:20 83° ESE 05:23:12 10° SSW
STARLINK-67 3.5 05:24:31 35° N 05:24:31 35° N 05:26:52 10° ENE
COSMO-SKYMED 1 2.4 05:20:32 10° S 05:24:51 73° WSW 05:29:14 10° NNW
STARLINK-46 3.0 05:26:11 49° NNW 05:26:20 50° NNW 05:29:16 10° ENE
Cosmos 2058 2.9 05:22:37 10° S 05:26:50 84° E 05:31:04 10° N
ATLAS 2AS CENTAUR R/B 3.4 05:20:07 13° NW 05:27:11 59° NE 05:34:19 10° ESE
NOSS 2-1 (C) 4.5 05:32:34 23° NW 05:32:54 23° NNW 05:36:17 10° NNE
CZ-4B R/B 3.0 05:30:33 10° N 05:33:55 38° WNW 05:35:21 26° WSW
ISS -1.5 05:34:31 14° SW 05:34:31 14° SW 05:35:56 10° S
Cosmos 1461 3.5 05:33:30 30° WNW 05:34:10 32° NW 05:37:46 10° NNE
ASTEX 1 3.7 05:29:39 10° SSW 05:34:19 42° W 05:39:04 10° NNW
Okean O Rocket 2.4 05:30:10 10° NNE 05:34:27 54° E 05:38:42 10° S
CZ-2C R/B 2.9 05:29:51 10° N 05:34:27 38° WNW 05:38:54 10° SW
Cosmos 2082 Rocket 2.1 05:32:14 10° SW 05:37:57 71° WNW 05:43:41 10° NNE
Lacrosse 5 rocket 2.5 05:37:13 21° NNW 05:38:23 24° N 05:41:23 10° NE
SJ 16-02 1.8 05:35:38 10° S 05:39:58 63° ESE 05:44:20 10° NNE
In-Cosmos 22 Rocket 4.3 05:35:22 10° S 05:40:41 75° E 05:46:09 10° NNE
Cosmos 1356 Rocket 3.7 05:37:54 10° NNW 05:42:04 49° W 05:46:12 10° S
SJ-12 3.8 05:38:17 10° NNE 05:42:28 82° WNW 05:46:36 10° SSW
Lacrosse 5 2.0 05:37:33 10° SW 05:42:37 76° SE 05:47:42 10° ENE
Cosmos 1408 4.5 05:40:24 10° SSE 05:43:46 34° E 05:47:08 10° NNE
Shenzhou-11 Module 4.0 05:43:45 12° SSW 05:45:19 18° S 05:47:19 10° SE
METEOR-M 4.2 05:40:48 10° NNE 05:46:11 81° ESE 05:51:32 10° SSW
Cosmos 2112 Rocket 4.3 05:43:22 10° NW 05:48:23 46° WSW 05:53:26 10° S
STARLINK-52 3.3 05:47:53 16° WSW 05:50:36 74° SSE 05:54:08 10° ENE
Cosmos 1825 4.2 05:48:17 10° SSE 05:51:37 31° E 05:54:59 10° NNE
Cosmos 1459 Rocket 4.0 05:48:42 10° S 05:54:52 90° ESE 06:01:11 10° N
USA 234 3.5 05:49:03 10° ESE 05:55:30 65° NNE 06:01:31 12° NW
Cosmos 2016 Rocket 4.5 05:49:24 10° S 05:55:33 66° E 06:01:49 10° NNE
Cosmos 1680 Rocket 4.2 05:52:16 11° NW 05:56:49 34° WSW 06:01:33 10° SSW
MOS 1-B 4.3 05:51:28 10° N 05:57:15 65° WNW 06:02:57 10° SSW
DMSP B5D1-3 4.5 05:56:47 10° S 06:01:54 71° WSW 06:07:03 10° NNW
Cosmos 2151 2.9 05:58:01 10° S 06:02:19 85° W 06:06:40 10° N
Cosmos 1833 Rocket 3.3 05:58:40 10° WSW 06:03:49 36° NW 06:08:59 10° NNE
STARLINK-29 3.1 06:02:32 12° WSW 06:05:40 86° NNW 06:09:10 10° ENE
deb Kosmos-1763 4.0 06:02:18 10° SSW 06:05:57 65° WNW 06:09:40 10° NNE
H-2A R/B 4.2 06:03:15 10° NNW 06:06:00 16° WNW 06:07:24 14° W
SL-16 R/B 2.2 06:01:25 10° NNW 06:07:09 89° WSW 06:12:49 10° SSE
Radarsat Rocket 4.5 06:01:17 10° NNE 06:07:11 64° ESE 06:12:59 10° S
BREEZE-M DEB (TANK) 3.3 06:05:22 14° W 06:07:46 34° SSW 06:10:16 10° SE
Cosmos 2100 Rocket 3.9 06:02:00 10° SSW 06:08:11 70° WNW 06:14:22 10° N
SL-4 R/B 2.5 06:04:36 15° WNW 06:08:36 73° N 06:13:24 10° E
COSMOS 2455 2.9 06:02:33 10° NW 06:08:37 83° WSW 06:14:38 10° SSE
CZ-4C R/B 3.7 06:05:04 13° WNW 06:09:08 25° N 06:14:40 10° NE
Cosmos 2237 Rocket 4.5 06:06:41 10° N 06:09:36 14° NNE 06:12:30 10° ENE
Cosmos 2360 Rocket 3.0 06:07:22 10° NNW 06:12:55 51° NE 06:18:26 10° SE
SL-27 R/B 2.5 06:11:15 10° SW 06:14:28 48° WNW 06:17:43 10° NNE
Gbstr 26 Del rocket 3.6 06:13:26 10° SW 06:17:06 48° SSE 06:20:44 10° ENE
Cosmos 1802 Rocket 4.1 06:11:14 10° SSW 06:17:40 77° W 06:24:07 10° N
Cosmos 1980 Rocket 3.2 06:13:46 10° NW 06:18:26 26° WSW 06:23:04 10° SSW
ATLAS CENTAUR R/B 4.4 06:14:35 10° S 06:18:33 25° ESE 06:22:28 10° ENE
USA 116 4.4 06:16:54 10° SSW 06:19:28 23° W 06:22:10 10° NW
Cosmos 2322 Rocket 2.2 06:14:09 10° NNW 06:19:50 83° WSW 06:25:31 10° SSE
Meteor 1-31 Rocket 4.5 06:17:54 10° NNW 06:19:55 14° WNW 06:21:55 10° W
Cosmos 1400 Rocket 4.2 06:16:27 10° N 06:20:25 42° ENE 06:24:17 10° SE
Cosmos 1515 Rocket 3.6 06:16:27 10° N 06:20:49 83° E 06:25:09 10° S
Cosmos 2061 Rocket 4.0 06:16:08 10° SSW 06:22:24 79° W 06:28:40 10° N
Cosmos 1328 Rocket 3.6 06:21:21 10° NNW 06:25:38 56° W 06:29:52 10° S
STARLINK-60 3.2 06:23:34 10° W 06:26:55 58° NNW 06:30:15 10° ENE
Cosmos 1743 Rocket 4.4 06:22:49 10° S 06:27:04 56° E 06:31:20 10° NNE
FALCON 9 DEB 3.2 06:23:43 10° W 06:27:09 65° NNW 06:30:35 10° ENE
Cosmos 1484 Rocket 4.0 06:24:57 10° NNW 06:28:01 22° WNW 06:31:06 10° WSW
Cosmos 990 Rocket 4.1 06:23:32 10° SW 06:28:34 51° WNW 06:33:39 10° NNE
CZ-2C R/B 3.9 06:28:39 10° SSE 06:33:08 78° ENE 06:37:44 10° NNW
Cosmos 2084 Rocket 4.3 06:29:09 10° W 06:33:11 33° NNW 06:37:14 10° NNE
ADEOS Rocket 3.8 06:27:19 10° SSE 06:35:07 81° ENE 06:42:40 10° NNW
Okean-O 3.9 06:32:01 10° NNE 06:36:20 47° E 06:40:37 10° S
NOSS 3-4 (A) 3.9 06:30:59 10° NW 06:37:56 87° SW 06:45:35 10° SE
NOSS 3-4 (C) 3.9 06:31:05 10° NW 06:38:02 88° SW 06:45:41 10° SE
SOZ 4.1 06:34:47 10° WSW 06:39:00 74° NNW 06:41:12 10° ENE
Cosmos 2333 Rocket 3.6 06:34:01 10° NNW 06:39:17 35° NE 06:44:32 10° ESE
Cosmos 1151 Rocket 3.4 06:35:11 10° NNW 06:39:22 44° W 06:43:31 10° SSW
